カタログに戻る

USA 339

運用中軍事GEO
NORAD 54220·PAYLOAD·🇺🇸 United States

打ち上げ Nov 1, 2022 から Cape Canaveral Space Force Station

Loading…

TLE

最新Source: Mike McCants

元期: Sep 15, 2026, 07:03 UTC

1 54220U 22144B   26258.29378806  .00000000  00000-0  00000-0 0    05
2 54220   1.1737  83.6287 0004554 184.0233 175.9844  0.99101780  2653

AllMySatでUSA 339をリアルタイム追跡

Download on the App Store